• Join FlightAware (Why Join?)
  • Login
  • US Flag 
04:39PM EDT


 

Airport Tracker/Info


-or-


 

Live Flight TrackerFlight Track Log ✈ SWA2166 ✈ 09-Apr-2013 ✈ KHOU - KBWI

Flight Track Log - Related Links

Times and Time Zones

All times are in EDT time to prevent confusion due to time zone crossing. See the SWA2166 flight status page for this flight to view local times or setup timezone preferences in your user account.

Time Position Orientation Groundspeed Altitude Reporting Facility
EDT Latitude Longitude Course Direction KTS MPH feet Rate Location/Type
09:35PM 29.6717 -95.2269 44° Northeast 264 304 3,900  Level Houston Center
09:36PM 29.7550 -95.2322 357° North 288 331 6,500 2,880 Climbing Houston Center
09:37PM 29.8442 -95.2358 358° North 310 357 10,100 3,600 Climbing Houston Center
09:38PM 29.9425 -95.2419 357° North 344 396 13,900 3,600 Climbing Houston Center
09:39PM 30.0478 -95.2486 357° North 374 430 17,500 3,720 Climbing Houston Center
09:40PM 30.1517 -95.1997 22° Northeast 414 476 21,600 3,540 Climbing Houston Center
09:41PM 30.2461 -95.1275 33° Northeast 410 472 24,800 2,700 Climbing Houston Center
09:42PM 30.3461 -95.0514 33° Northeast 426 490 27,200 2,280 Climbing Houston Center
09:43PM 30.4564 -94.9658 34° Northeast 445 512 29,500 2,100 Climbing Houston Center
09:44PM 30.5664 -94.8806 34° Northeast 468 539 31,500 2,160 Climbing Houston Center
09:45PM 30.7011 -94.7781 33° Northeast 480 552 33,900 2,280 Climbing Houston Center
09:46PM 30.8139 -94.6911 34° Northeast 486 559 36,200 1,860 Climbing Houston Center
09:47PM 30.9236 -94.6061 34° Northeast 480 552 37,800 1,380 Climbing Houston Center
09:48PM 31.0358 -94.5189 34° Northeast 488 562 39,100 1,260 Climbing Houston Center
09:49PM 31.1467 -94.4331 34° Northeast 485 558 40,400 840 Climbing Houston Center
09:50PM 31.2800 -94.3289 34° Northeast 486 559 41,000 240 Climbing Fort Worth Center
09:51PM 31.3906 -94.2400 34° Northeast 486 559 41,000  Level Fort Worth Center
09:52PM 31.5072 -94.1508 33° Northeast 486 559 41,000  Level Fort Worth Center
09:53PM 31.6217 -94.0589 34° Northeast 486 559 41,000  Level Fort Worth Center
09:54PM 31.7364 -93.9742 32° Northeast 486 559 41,000  Level Fort Worth Center
09:55PM 31.8508 -93.8842 34° Northeast 491 565 41,000  Level Fort Worth Center
09:56PM 31.9631 -93.7942 34° Northeast 491 565 41,000  Level Fort Worth Center
09:57PM 32.0753 -93.7064 34° Northeast 491 565 41,000  Level Fort Worth Center
09:58PM 32.1822 -93.5769 46° Northeast 491 565 41,000  Level Fort Worth Center
09:59PM 32.2700 -93.4456 52° Northeast 491 565 41,000  Level Fort Worth Center
10:00PM 32.3492 -93.3142 54° Northeast 491 565 41,000  Level Fort Worth Center
10:01PM 32.4344 -93.1825 52° Northeast 497 572 41,000  Level Fort Worth Center
10:02PM 32.5156 -93.0506 54° Northeast 497 572 41,000  Level Fort Worth Center
10:03PM 32.5986 -92.9183 53° Northeast 497 572 41,000  Level Fort Worth Center
10:04PM 32.6794 -92.7883 54° Northeast 497 572 41,000  Level Fort Worth Center
10:05PM 32.7600 -92.6533 55° Northeast 497 572 41,000  Level Fort Worth Center
10:07PM 32.9033 -92.4183 54° Northeast 507 583 41,000  Level Memphis Center
10:08PM 32.9847 -92.2889 53° Northeast 496 571 41,000  Level Memphis Center
10:09PM 33.0642 -92.1544 55° Northeast 496 571 41,000  Level Memphis Center
10:10PM 33.1472 -92.0197 54° Northeast 496 571 41,000  Level Memphis Center
10:11PM 33.2136 -91.8992 57° Northeast 491 565 41,000  Level Memphis Center
10:12PM 33.3114 -91.7517 52° Northeast 497 572 41,000  Level Memphis Center
10:13PM 33.3772 -91.6308 57° Northeast 497 572 41,000  Level Memphis Center
10:14PM 33.4600 -91.4978 53° Northeast 497 572 41,000  Level Memphis Center
10:15PM 33.5383 -91.3592 56° Northeast 497 572 41,000  Level Memphis Center
10:16PM 33.6186 -91.2253 54° Northeast 497 572 41,000  Level Memphis Center
10:17PM 33.7011 -91.0889 54° Northeast 497 572 41,000  Level Memphis Center
10:18PM 33.7811 -90.9544 54° Northeast 497 572 41,000  Level Memphis Center
10:19PM 33.8672 -90.8050 55° Northeast 497 572 41,000  Level Memphis Center
10:20PM 33.9428 -90.6728 55° Northeast 497 572 41,000  Level Memphis Center
10:21PM 34.0222 -90.5375 55° Northeast 492 566 41,000  Level Memphis Center
10:22PM 34.0997 -90.4047 55° Northeast 486 559 41,000  Level Memphis Center
10:23PM 34.1769 -90.2717 55° Northeast 486 559 41,000  Level Memphis Center
10:24PM 34.2539 -90.1361 55° Northeast 486 559 41,000  Level Memphis Center
10:25PM 34.3286 -90.0050 55° Northeast 480 552 41,000  Level Memphis Center
10:26PM 34.4033 -89.8714 56° Northeast 475 547 41,000  Level Memphis Center
10:27PM 34.4758 -89.7400 56° Northeast 475 547 41,000  Level Memphis Center
10:28PM 34.5481 -89.6056 57° Northeast 475 547 41,000  Level Memphis Center
10:29PM 34.6244 -89.4739 55° Northeast 475 547 41,000  Level Memphis Center
10:30PM 34.6986 -89.3417 56° Northeast 475 547 41,000  Level Memphis Center
10:31PM 34.7725 -89.2092 56° Northeast 475 547 41,000  Level Memphis Center
10:32PM 34.8381 -89.0919 56° Northeast 470 541 41,000  Level Memphis Center
10:33PM 34.9119 -88.9617 55° Northeast 470 541 41,000  Level Memphis Center
10:34PM 34.9853 -88.8314 55° Northeast 470 541 41,000  Level Memphis Center
10:35PM 35.0589 -88.6981 56° Northeast 470 541 41,000  Level Memphis Center
10:36PM 35.1300 -88.5644 57° Northeast 468 539 41,000  Level Memphis Center
10:37PM 35.2053 -88.4408 53° Northeast 468 539 41,000  Level Memphis Center
10:38PM 35.2783 -88.3069 56° Northeast 468 539 41,000  Level Memphis Center
10:39PM 35.3489 -88.1756 57° Northeast 468 539 41,000  Level Memphis Center
10:40PM 35.4153 -88.0336 60° Northeast 474 545 41,000  Level Memphis Center
10:41PM 35.4900 -87.9042 55° Northeast 469 540 41,000  Level Memphis Center
10:42PM 35.5661 -87.7564 58° Northeast 462 532 41,000  Level Memphis Center
10:43PM 35.6383 -87.6236 56° Northeast 462 532 41,000  Level Memphis Center
10:44PM 35.7064 -87.4936 57° Northeast 457 526 41,000  Level Memphis Center
10:45PM 35.7783 -87.3633 56° Northeast 457 526 41,000  Level Memphis Center
10:46PM 35.8481 -87.2300 57° Northeast 452 520 41,000  Level Memphis Center
10:47PM 35.9156 -87.0994 57° Northeast 452 520 41,000  Level Memphis Center
10:48PM 35.9850 -86.9683 57° Northeast 452 520 41,000  Level Memphis Center
10:49PM 36.0542 -86.8344 57° Northeast 457 526 41,000  Level Memphis Center
10:50PM 36.1233 -86.6981 58° Northeast 462 532 41,000  Level Memphis Center
10:51PM 36.1794 -86.5514 65° Northeast 462 532 41,000  Level Memphis Center
10:52PM 36.2267 -86.4000 69° East 462 532 41,000  Level Memphis Center
10:53PM 36.2761 -86.2483 68° East 462 532 41,000  Level Memphis Center
10:54PM 36.3253 -86.1042 67° East 462 532 41,000  Level Memphis Center
10:55PM 36.3722 -85.9522 69° East 462 532 41,000  Level Memphis Center
10:57PM 36.4814 -85.6086 68° East 470 541 41,000  Level Indianapolis Center
10:58PM 36.5292 -85.4575 68° East 469 540 41,000  Level Indianapolis Center
10:59PM 36.5769 -85.3036 69° East 474 545 41,000  Level Indianapolis Center
11:00PM 36.6236 -85.1494 69° East 475 547 41,000  Level Indianapolis Center
11:01PM 36.6719 -84.9942 69° East 478 550 41,000  Level Indianapolis Center
11:02PM 36.7189 -84.8372 69° East 482 555 41,000  Level Indianapolis Center
11:03PM 36.7667 -84.6828 69° East 478 550 41,000  Level Indianapolis Center
11:04PM 36.8211 -84.5025 69° East 476 548 41,000  Level Indianapolis Center
11:05PM 36.8672 -84.3486 69° East 476 548 41,000  Level Indianapolis Center
11:06PM 36.9150 -84.1964 69° East 473 544 41,000  Level Indianapolis Center
11:07PM 36.9600 -84.0422 70° East 473 544 41,000  Level Indianapolis Center
11:08PM 37.0050 -83.8878 70° East 474 545 41,000  Level Indianapolis Center
11:09PM 37.0525 -83.7342 69° East 471 542 41,000  Level Indianapolis Center
11:10PM 37.0975 -83.5781 70° East 474 545 41,000  Level Indianapolis Center
11:12PM 37.1419 -83.4208 70° East 476 548 41,000  Level Indianapolis Center
11:13PM 37.1875 -83.2644 70° East 476 548 41,000  Level Indianapolis Center
11:14PM 37.2325 -83.1081 70° East 473 544 41,000  Level Indianapolis Center
11:15PM 37.2781 -82.9514 70° East 472 543 41,000  Level Indianapolis Center
11:16PM 37.3239 -82.7961 70° East 471 542 41,000  Level Indianapolis Center
11:17PM 37.3769 -82.6169 70° East 468 539 41,000  Level Indianapolis Center
11:18PM 37.4217 -82.4633 70° East 466 536 41,000  Level Indianapolis Center
11:19PM 37.4653 -82.3097 70° East 465 535 41,000  Level Indianapolis Center
11:20PM 37.5103 -82.1575 70° East 463 533 41,000  Level Indianapolis Center
11:21PM 37.5528 -82.0042 71° East 463 533 41,000  Level Indianapolis Center
11:22PM 37.5972 -81.8514 70° East 463 533 41,000  Level Indianapolis Center
11:23PM 37.6397 -81.6964 71° East 465 535 41,000  Level Indianapolis Center
11:24PM 37.6831 -81.5419 70° East 466 536 41,000  Level Indianapolis Center
11:25PM 37.7300 -81.3794 70° East 471 542 41,000  Level Indianapolis Center
11:25PM 37.7472 -81.3044 74° East 468 539 41,000  Level Washington Center
11:26PM 37.7869 -81.1681 70° East 442 509 41,000  Level Washington Center
11:27PM 37.8322 -80.9978 71° East 449 517 41,000  Level Washington Center
11:28PM 37.8767 -80.8483 69° East 449 517 41,000  Level Washington Center
11:29PM 37.9167 -80.6906 72° East 454 522 41,000  Level Washington Center
11:30PM 37.9586 -80.5381 71° East 454 522 41,000  Level Washington Center
11:31PM 38.0003 -80.3881 71° East 454 522 41,000  Level Washington Center
11:32PM 38.0392 -80.2453 71° East 454 522 41,000  Level Washington Center
11:33PM 38.0806 -80.0922 71° East 454 522 41,000  Level Washington Center
11:34PM 38.1217 -79.9364 71° East 454 522 41,000  Level Washington Center
11:35PM 38.1628 -79.7803 71° East 454 522 41,000  Level Washington Center
11:36PM 38.2061 -79.6108 72° East 459 528 41,000  Level Washington Center
11:37PM 38.2486 -79.4547 71° East 454 522 41,000  Level Washington Center
11:38PM 38.2869 -79.3006 72° East 454 522 41,000  Level Washington Center
11:39PM 38.3292 -79.1464 71° East 454 522 41,000 -900 Level Washington Center
11:40PM 38.3625 -79.0050 73° East 454 522 39,300 -2,100 Descending Washington Center
11:41PM 38.3958 -78.8528 74° East 454 522 36,900 -2,700 Descending Washington Center
11:42PM 38.4333 -78.6981 73° East 454 522 33,900 -3,120 Descending Washington Center
11:43PM 38.4728 -78.5461 72° East 449 517 30,700 -3,000 Descending Washington Center
11:44PM 38.5097 -78.3908 73° East 454 522 28,000 -2,640 Descending Washington Center
11:45PM 38.5486 -78.2411 72° East 454 522 25,400 -2,580 Descending Washington Center
11:46PM 38.5831 -78.0936 73° East 442 509 22,900 -2,460 Descending Washington Center
11:47PM 38.6169 -77.9564 72° East 428 493 20,500 -1,980 Descending Washington Center
11:48PM 38.6428 -77.8164 77° East 406 467 19,000 -780 Descending Washington Center
11:49PM 38.6514 -77.6786 85° East 400 460 19,000 -60 Level Washington Center
11:50PM 38.6667 -77.5500 81° East 394 453 18,900 -1,380 Descending Potomac TRACON
11:51PM 38.6667 -77.4167 90° East 382 440 16,600 -1,620 Descending Potomac TRACON
11:52PM 38.6833 -77.3000 80° East 378 435 16,000 -1,080 Descending Potomac TRACON
11:53PM 38.6833 -77.1833 90° East 368 423 14,700 -1,920 Descending Potomac TRACON
11:54PM 38.7000 -77.0333 82° East 368 423 12,000 -2,040 Descending Potomac TRACON
11:55PM 38.7500 -76.9833 38° Northeast 334 384 10,900 -1,500 Descending Potomac TRACON
11:56PM 38.8500 -76.9500 15° North 293 337 9,400 -1,500 Descending Potomac TRACON
11:57PM 38.9167 -76.9000 30° Northeast 280 322 7,800 -1,800 Descending Potomac TRACON
11:58PM 39.0000 -76.8667 17° North 289 333 5,900 -1,740 Descending Potomac TRACON
11:59PM 39.0833 -76.8667 360° North 270 311 4,100 -1,200 Descending Potomac TRACON
12:00AM 39.1333 -76.8833 346° North 238 274 3,500 -900 Descending Potomac TRACON
12:01AM 39.1833 -76.8667 14° North 239 275 2,500 -900 Descending Potomac TRACON
12:02AM 39.1833 -76.8000 90° East 200 230 1,700 -840 Descending Potomac TRACON
12:03AM 39.1833 -76.7333 90° East 154 177 800 -840 Descending Potomac TRACON
12:05AM 39.1667 -76.6667 99° East  Level FlightAware Approximate
12:12AM 39.1754 -76.6683 99° East  Level Estimated
12:13AM 39.1754 -76.6683 99° East  Level Estimated
12:14AM 39.1754 -76.6683 99° East  Level Estimated